Location: Dead Woman Crossing
(43.5369°N, 106.3228°W)
Time: 07:36:19
(UTC+00:00)

NANOSAT C BR1 - Pass Details

Date: 06 July 2022
Orbit: 584 x 599 km, 98.0° (Epoch: 17 August)

Event Time Altitude Azimuth Distance (km) Brightness Sun altitude
Rises 09:57:30 0° 3° (N) 2,854 ? -13.5°
Reaches altitude 10° 09:59:49 10° 354° (N) 1,949 ? -13.2°
Maximum altitude 10:03:36 33° 291° (WNW) 1,025 ? -12.8°
Enters shadow 10:06:07 18° 238° (WSW) 1,502 ? -12.5°
